Date,TemperatureHighF,TemperatureAvgF,TemperatureLowF,DewpointHighF,DewpointAvgF,DewpointLowF,HumidityHigh,HumidityAvg,HumidityLow,PressureMaxIn,PressureMinIn,WindSpeedMaxMPH,WindSpeedAvgMPH,GustSpeedMaxMPH,PrecipitationSumIn
2013-1-10,74.5,64.2,60.7,67.6,62.9,60.1,99,96,79,30.31,30.26,4,0,9,0.01
2013-1-11,82.9,69.8,58.3,72.4,65.2,57.7,100,87,56,30.30,30.18,9,1,9,0.01
2013-1-12,84.3,68.9,58.2,72.8,64.7,58.2,100,88,58,30.24,30.11,8,0,8,0.01
2013-1-13,83.8,69.4,56.2,70.9,64.4,56.1,100,86,54,30.20,30.09,11,1,11,0.00
2013-1-14,82.9,69.1,58.4,70.5,64.9,58.1,100,88,61,30.22,30.14,9,1,9,0.01
2013-1-15,82.9,69.8,60.2,72.5,66.1,59.9,100,89,63,30.19,30.08,9,1,9,0.00
2013-1-16,84.3,70.3,58.6,70.9,63.8,58.3,100,83,47,30.14,30.03,11,1,11,0.01
2013-1-17,81.8,66.4,55.4,71.9,61.6,48.3,100,85,67,30.13,29.97,24,5,24,0.01
2013-1-18,67.9,57.3,43.7,64.3,51.4,38.7,94,81,74,30.32,30.13,17,4,17,0.03
2013-1-19,77.3,66.7,58.0,65.6,61.2,55.9,93,83,62,30.33,30.17,10,2,12,0.00
2013-1-20,75.5,65.0,57.7,67.6,61.4,55.1,98,89,71,30.22,30.08,10,2,10,0.00
2013-1-21,77.3,65.5,58.5,65.8,60.8,56.6,97,86,66,30.13,30.02,6,1,6,0.00
2013-1-22,67.0,60.4,49.4,57.9,49.6,42.9,96,68,48,30.28,30.09,13,2,13,0.00
2013-1-23,47.5,45.2,43.5,43.6,42.8,39.6,95,91,80,30.34,30.33,1,0,6,0.00
2013-1-24,76.8,57.5,42.4,55.5,48.3,41.3,99,76,41,30.37,30.24,11,1,11,0.00
2013-1-25,77.5,60.9,47.8,61.3,52.6,47.0,99,78,43,30.34,30.19,9,1,9,0.00
2013-1-26,78.9,61.0,44.8,61.5,52.6,43.6,99,77,48,30.31,30.19,10,1,10,0.00
2013-1-28,80.7,74.3,66.7,68.8,66.7,64.1,94,78,65,30.38,30.26,14,1,14,0.00
2013-1-29,86.3,72.7,61.5,71.9,67.2,60.6,99,84,55,30.29,30.13,13,1,13,0.00
2013-1-30,85.0,75.1,66.0,69.2,66.8,64.9,98,77,53,30.15,29.90,22,5,22,0.00
2013-1-31,73.1,59.8,44.3,68.6,48.1,33.4,96,69,32,30.26,29.91,16,4,22,0.08
2013-2-1,65.5,43.2,37.0,43.2,39.3,35.4,97,87,44,30.35,30.25,2,0,7,0.00
2013-2-2,74.0,55.9,39.7,52.2,43.5,38.2,96,68,30,30.35,30.17,12,1,12,0.00
2013-2-3,73.3,56.7,40.7,54.9,46.0,39.1,98,71,38,30.23,30.07,19,2,19,0.00
2013-2-4,72.8,54.4,39.2,51.6,42.4,35.0,98,70,30,30.18,30.06,11,1,11,0.00
2013-2-5,78.1,59.2,41.4,57.1,50.1,40.9,100,76,42,30.14,30.02,14,1,14,0.00
2013-2-6,80.0,67.5,56.5,67.4,62.1,54.9,97,84,58,30.15,30.06,7,0,7,0.00
2013-2-7,83.0,73.0,60.3,67.2,64.5,59.7,99,77,54,30.11,29.89,18,3,18,0.00
2013-2-8,82.0,71.2,58.2,67.7,62.0,56.0,97,75,44,30.11,29.89,16,4,16,0.00
2013-2-9,76.8,63.0,53.6,61.9,57.2,52.8,99,83,56,30.24,30.10,11,2,12,0.00
2013-2-10,79.5,64.5,50.7,65.0,58.1,50.3,100,82,54,30.31,30.20,12,1,12,0.01
2013-2-11,84.1,70.0,55.7,67.2,62.2,55.2,99,79,48,30.25,30.09,16,3,16,0.00
2013-2-12,85.9,78.6,73.0,69.1,66.6,64.2,87,68,50,29.97,29.94,10,3,13,0.00
2013-2-13,88.5,74.9,65.2,73.0,69.0,63.1,96,84,52,29.99,29.82,23,6,23,0.41
2013-2-14,70.8,64.2,58.4,65.8,61.9,57.6,99,93,78,30.08,29.94,10,1,10,0.22
2013-2-15,72.3,60.0,53.4,61.7,56.6,52.8,98,90,61,30.11,29.97,11,2,11,0.03
2013-2-16,71.6,58.3,50.2,56.2,46.2,28.7,99,69,33,30.16,29.91,26,5,26,0.00
2013-2-17,56.4,45.1,33.8,34.4,24.9,15.8,100,49,21,30.38,30.16,20,3,20,0.00
2013-2-18,64.7,40.1,31.0,50.0,38.0,30.1,98,93,47,30.40,30.25,3,0,10,0.00
2013-2-19,80.5,63.4,45.3,60.7,53.0,44.6,100,73,42,30.26,30.07,16,3,16,0.00
2013-2-20,77.4,63.1,56.4,62.7,57.8,54.8,98,84,61,30.17,30.06,8,1,9,0.00
2013-2-21,84.7,67.9,55.6,68.9,61.9,54.2,97,83,48,30.14,30.02,8,1,11,0.00
2013-2-22,87.9,73.7,61.7,73.8,68.2,61.4,100,85,49,30.12,30.01,15,2,15,0.00
2013-2-23,89.5,78.6,72.2,72.0,69.6,65.5,95,76,48,30.04,29.88,19,5,19,0.00
2013-2-24,77.9,71.4,65.4,74.8,69.7,64.5,98,94,86,29.99,29.88,10,2,10,0.36
2013-2-25,71.5,69.0,65.9,70.0,68.2,65.3,98,97,96,29.96,29.82,2,0,1,0.01
2013-2-26,80.4,74.0,66.7,73.9,69.5,62.2,98,86,78,29.89,29.77,21,5,21,0.23
2013-2-27,77.0,68.5,63.1,64.6,60.5,54.0,92,77,46,30.00,29.88,12,3,12,0.00
2013-3-1,67.2,59.6,52.7,46.7,41.3,35.2,80,52,36,30.03,29.93,16,5,16,0.00
2013-3-2,62.7,52.6,40.6,41.8,36.6,29.1,84,56,29,30.06,29.96,25,5,25,0.00
2013-3-3,56.6,46.1,36.5,37.0,33.6,31.4,85,63,43,30.20,30.02,21,5,21,0.00
2013-3-4,67.0,48.5,31.4,41.2,33.5,26.2,96,63,25,30.27,30.15,14,1,14,0.00
2013-3-5,78.1,61.7,39.2,58.5,44.2,36.2,96,60,29,30.19,30.03,15,4,15,0.00
2013-3-6,70.9,61.8,48.6,63.2,43.2,29.4,92,55,25,30.17,29.94,21,7,21,0.00
2013-3-7,68.7,50.3,38.7,48.5,40.7,34.3,97,71,42,30.25,30.15,11,2,11,0.00
2013-3-8,75.8,51.8,40.0,51.5,44.7,38.7,99,82,29,30.25,30.14,9,1,11,0.00
2013-3-9,56.9,46.6,43.5,52.9,45.7,43.0,99,97,90,30.25,30.18,4,0,4,0.00
2013-3-10,80.0,74.6,51.9,61.2,58.6,51.6,99,58,46,30.22,30.12,12,3,12,0.00
2013-3-11,78.7,71.8,69.4,63.8,62.5,59.1,82,73,51,29.99,29.95,10,2,13,0.01
2013-3-12,72.4,68.1,60.0,69.9,64.5,58.3,97,89,79,30.04,29.90,16,5,17,0.17
2013-3-13,76.1,60.6,48.1,58.2,46.5,35.8,95,67,24,30.19,30.03,13,3,13,0.01
2013-3-14,68.8,53.9,42.2,46.6,40.2,33.1,96,64,29,30.30,30.18,15,3,15,0.00
2013-3-15,73.3,54.2,37.9,48.8,40.9,36.1,99,68,28,30.33,30.16,12,1,12,0.00
2013-3-16,81.0,60.9,42.2,52.4,45.2,41.0,100,64,26,30.23,30.06,12,2,12,0.00
2013-3-17,78.7,60.5,44.3,57.8,50.4,43.4,99,74,43,30.19,30.02,16,2,16,0.00
2013-3-19,88.8,78.7,66.9,66.2,62.4,57.1,89,60,36,30.02,29.90,9,2,9,0.00
2013-3-20,75.9,67.2,59.5,71.5,64.6,58.7,98,92,73,30.00,29.81,16,1,16,0.90
2013-3-21,73.0,59.6,49.3,59.2,49.0,36.7,98,74,27,30.00,29.85,15,3,15,0.01
2013-3-22,63.4,62.9,62.7,62.2,61.8,61.3,96,96,95,30.02,30.02,0,0,5,0.07
2013-3-23,87.7,71.7,63.4,76.3,68.0,61.5,99,89,60,30.02,29.78,16,2,16,0.10
2013-3-24,85.8,76.0,67.4,74.9,71.3,65.3,97,86,66,29.77,29.64,31,7,31,0.76
2013-3-25,75.0,67.4,55.4,69.2,50.5,32.0,93,61,22,30.06,29.72,17,5,21,0.00
2013-3-26,63.5,55.0,47.3,41.7,32.9,25.0,68,44,24,30.26,30.05,22,6,22,0.00
2013-3-27,60.2,46.5,38.8,37.8,34.7,31.9,82,65,38,30.34,30.25,13,2,13,0.00
2013-3-28,69.2,61.7,41.1,47.4,40.5,32.3,93,48,29,30.33,30.27,10,4,10,0.00
2013-3-29,42.9,41.8,41.2,41.6,40.6,39.9,96,95,95,30.33,30.30,0,0,0,0.00
2013-3-30,80.3,73.0,47.8,56.1,52.7,47.2,98,51,33,30.29,30.14,16,3,16,0.00
2013-3-31,76.0,65.3,61.2,59.4,55.8,53.5,85,72,51,30.22,30.14,20,2,20,0.00
2013-4-2,84.7,74.4,61.0,65.3,59.8,56.0,93,64,40,30.11,30.06,11,2,11,0.00
2013-4-3,84.8,70.5,57.0,70.5,63.7,56.4,99,82,52,30.12,29.98,13,1,13,0.22
2013-4-4,76.6,70.4,65.7,71.1,67.9,64.8,99,92,75,30.09,29.85,23,3,23,0.07
2013-4-5,78.3,69.9,58.7,70.4,65.4,56.9,95,86,68,30.01,29.82,13,4,14,0.19
2013-4-6,79.4,66.6,56.2,64.4,59.1,54.0,96,79,55,30.17,30.00,14,3,14,0.00
2013-4-7,63.4,59.7,56.3,60.9,58.0,55.2,96,94,91,30.17,30.08,6,1,6,0.00
2013-4-8,62.2,58.9,57.4,58.7,57.5,56.3,96,95,93,30.15,30.10,0,0,0,0.00
2013-4-10,82.2,72.5,72.3,71.4,67.1,-99.9,95,88,68,30.05,30.02,5,-21,10,0.00
2013-4-11,89.9,78.6,70.9,77.2,72.4,70.2,98,83,55,30.04,29.85,16,3,16,0.03
2013-4-12,87.8,80.7,74.4,75.9,72.5,-99.9,95,78,61,29.93,0.00,24,1,24,0.00
2013-4-13,65.7,65.1,64.5,61.8,61.6,61.5,90,88,87,30.01,30.01,0,0,0,0.00
2013-4-14,75.4,67.9,62.9,72.9,66.4,60.8,98,95,89,30.01,29.87,21,1,21,2.84
2013-4-15,91.9,76.0,66.3,72.3,67.4,64.9,98,78,47,30.10,29.93,10,1,10,0.00
2013-4-16,88.3,76.9,67.1,75.0,70.0,65.8,99,81,61,30.18,30.08,14,2,14,0.00
2013-4-19,92.9,82.8,73.4,76.5,72.8,68.4,97,74,49,30.05,29.92,21,5,21,0.01
2013-4-20,75.4,68.9,61.4,72.6,65.1,58.5,95,88,77,30.18,29.98,14,2,14,0.08
2013-4-21,75.1,65.5,62.5,72.0,63.1,59.1,98,92,88,30.18,30.10,8,2,8,0.19
2013-4-29,87.5,78.8,65.8,72.6,67.7,62.5,97,71,47,30.06,29.92,14,3,14,1.64
2013-4-30,90.0,74.7,66.2,73.5,68.7,65.4,99,84,48,30.04,29.94,12,1,12,0.24
2013-5-1,81.1,72.7,66.3,75.4,70.4,65.7,99,93,76,30.05,29.97,10,0,10,0.42
2013-5-2,78.5,72.0,67.1,73.9,70.5,66.6,99,95,83,30.00,29.84,12,1,12,1.62
2013-5-3,81.5,72.3,67.4,74.3,70.2,66.8,99,93,75,29.87,29.68,21,3,21,0.89
2013-5-4,85.4,75.0,68.7,74.8,71.0,68.1,99,88,62,29.80,29.69,12,1,14,0.21
2013-5-11,91.0,81.1,72.1,75.9,71.4,67.6,86,73,53,30.04,29.98,15,3,15,0.05
2013-5-12,75.3,71.5,69.9,70.1,68.4,66.9,94,90,86,30.04,29.96,5,0,5,0.00
2013-5-21,85.0,75.9,70.2,75.6,72.2,68.5,97,88,66,30.07,29.97,22,1,22,0.64
2013-5-22,84.7,71.8,67.5,76.9,70.1,66.9,99,95,72,30.00,29.95,6,0,6,0.07
2013-5-23,93.8,77.4,67.8,77.7,71.6,67.2,100,84,51,30.02,29.92,10,1,10,0.02
2013-5-24,70.4,69.3,68.7,69.0,68.2,67.4,98,96,94,30.02,29.98,4,0,4,0.00
2013-5-29,86.8,79.7,76.2,77.6,74.7,73.4,92,85,66,30.14,30.09,13,2,13,0.13
2013-5-30,87.2,78.2,72.3,78.4,74.3,71.1,96,88,67,30.16,30.07,14,2,14,0.44
2013-5-31,88.2,78.0,69.5,78.0,72.9,68.7,99,85,66,30.14,30.06,15,2,15,0.04
2013-6-3,91.6,82.1,74.3,79.1,76.2,73.5,99,84,58,30.02,29.89,14,2,14,0.02
2013-6-4,88.8,80.5,73.7,77.7,74.6,71.6,98,83,60,30.04,29.96,20,2,20,0.02
2013-6-5,88.8,77.5,72.6,80.3,75.2,71.4,99,93,69,30.04,29.94,10,1,14,1.43
2013-6-6,80.6,76.2,73.9,79.2,74.9,71.9,99,96,80,29.94,29.68,21,4,21,1.76
2013-6-7,80.9,77.0,75.0,76.3,74.6,73.5,96,92,85,29.92,29.77,16,5,16,0.01
2013-6-8,92.5,75.6,72.3,79.3,73.0,70.9,98,93,62,30.12,30.00,23,1,23,2.37
2013-6-9,91.8,80.3,71.0,80.0,74.7,70.7,100,85,61,30.14,30.04,12,1,12,0.01
2013-6-10,88.2,77.8,74.2,78.8,75.4,73.2,98,93,72,30.12,30.07,11,1,11,0.00
2013-6-11,90.7,75.2,72.9,76.4,74.2,72.3,98,97,63,30.11,30.02,18,1,18,1.30
2013-6-12,97.0,82.4,70.7,80.4,74.9,70.4,100,80,48,30.10,30.00,12,1,12,0.01
2013-6-14,94.5,94.0,91.5,75.3,72.6,69.7,56,50,47,29.88,29.84,13,5,14,0.00
2013-6-15,89.7,82.3,77.0,81.1,78.0,75.8,97,87,73,30.05,29.97,13,2,13,0.05
2013-6-16,89.9,82.7,78.7,81.6,78.1,76.6,97,87,69,30.11,30.04,13,1,13,1.14
2013-6-17,91.4,84.5,78.4,81.1,78.6,76.9,97,83,66,30.11,29.99,15,1,15,0.29
2013-6-20,80.8,76.9,75.4,75.9,74.9,72.7,97,94,78,30.11,30.07,6,1,6,0.13
2013-6-21,81.8,74.3,71.9,74.7,73.0,71.3,99,96,79,30.13,30.06,11,0,11,0.09
2013-6-22,86.8,75.1,71.8,79.7,73.6,71.1,99,95,73,30.14,30.08,7,0,7,0.00
2013-6-25,91.3,89.2,86.3,79.2,76.2,71.0,78,66,57,30.14,30.06,10,3,11,0.00
2013-6-26,94.6,91.0,85.9,80.1,77.8,75.8,81,66,59,30.09,30.05,8,2,9,0.05
2013-6-28,93.2,77.1,75.0,78.2,74.7,73.0,97,93,59,29.91,29.85,17,1,17,0.20
2013-6-29,78.2,76.4,75.2,77.2,75.4,74.1,97,97,96,29.90,29.84,7,1,7,0.00
2013-6-30,92.4,76.6,74.9,78.2,75.0,73.3,97,95,63,29.91,29.84,21,2,25,0.58
2013-7-1,75.3,75.0,74.8,74.3,74.0,73.7,97,97,95,29.93,29.89,9,2,10,0.00
2013-7-2,87.7,77.6,74.9,80.8,75.8,74.0,98,94,78,30.09,30.00,18,1,19,0.04
2013-7-3,89.1,84.1,80.4,82.1,79.4,76.6,94,86,75,30.14,30.11,15,2,15,0.42
2013-7-9,91.1,88.6,84.4,76.4,74.8,73.3,72,64,58,30.11,30.09,13,3,13,1.03
2013-7-10,90.4,85.4,82.6,79.8,78.4,75.1,89,80,61,30.09,30.06,5,1,7,0.09
2013-7-13,91.9,82.3,80.1,78.3,76.4,74.0,90,83,59,29.98,29.94,8,1,8,0.31
2013-7-15,90.0,86.0,80.1,80.0,77.7,76.0,89,76,67,30.14,30.05,10,2,0,0.01
2013-7-16,86.6,77.4,74.5,77.9,75.3,73.3,97,93,73,30.18,30.14,8,1,13,0.46
2013-7-17,74.7,74.4,74.3,73.6,73.5,73.3,97,97,97,30.18,30.17,0,0,0,0.00
2013-7-19,87.8,75.3,74.4,79.3,74.1,72.9,98,96,76,30.14,30.06,14,2,14,1.55
2013-7-20,92.3,78.9,73.5,81.3,76.0,73.2,99,92,63,30.13,30.07,11,1,11,0.01
2013-7-26,76.7,76.6,76.6,75.8,75.8,75.7,97,97,97,29.97,29.96,0,0,0,0.39
2013-8-20,94.0,85.2,78.6,79.3,77.2,75.0,95,78,57,30.12,30.02,12,1,12,0.01
2013-8-21,91.8,81.1,77.0,82.3,77.9,75.3,98,91,68,30.14,30.07,14,1,15,0.16
2013-8-22,78.2,77.7,76.7,77.9,77.1,76.1,99,98,98,30.11,30.06,2,0,2,0.00
2013-8-25,87.3,80.3,76.3,80.6,77.5,74.6,97,91,78,30.18,30.10,7,1,7,2.25